Wind_Speed
17 15 14 15 17 15 15 15 12 10 8 8 10 13 17 20 21 18 16 15 15 15 16 17 17 17 16 16 16 16 16 16 15 15 14 14 14 14 13 14 14 14 14 13 13 12 11 11 11 11 11 10 10 10 10 11 12 13 14 14 14 14 14 14 14 13 13 13 13 12 12 12 12 12 12 13 13 14 15 15 16 17 18 18 19
20 18 15 15 17 15 14 13 10 8 5 7 11 15 17 20 21 21 20 19 17 17 17 17 17 17 17 17 17 17 17 17 16 15 15 14 14 13 12 12 12 13 13 12 11 10 10 10 11 12 12 12 12 11 11 11 12 12 13 13 14 14 14 15 15 15 15 15 15 15 14 14 14 14 14 14 15 15 15 16 17 18 19 20 20
22 20 18 17 17 15 12 12 11 10 9 10 13 16 18 19 19 21 22 20 18 18 17 17 18 18 18 18 18 19 19 19 18 17 16 16 15 14 12 12 11 12 12 11 10 9 10 12 13 14 15 15 15 15 14 13 14 14 14 14 14 15 16 17 17 17 17 17 17 17 16 16 16 16 16 16 16 16 16 17 17 18 19 20 21
23 21 20 18 16 15 13 11 12 14 14 13 14 17 19 18 17 19 20 19 18 19 18 17 18 19 19 18 19 20 21 20 19 19 18 17 17 16 15 14 13 13 13 12 12 12 13 14 16 17 18 18 18 18 17 17 17 18 18 18 18 19 19 20 20 20 20 20 19 19 19 19 19 19 20 19 19 19 18 18 19 19 19 20 21
23 21 20 18 15 15 15 14 14 16 15 14 16 19 20 19 18 19 20 20 20 20 20 19 19 21 21 20 20 21 22 21 20 20 19 19 18 18 17 17 16 16 15 16 16 16 16 16 16 17 19 19 19 19 19 19 20 21 22 23 23 23 24 24 24 23 23 23 22 22 21 21 21 22 22 22 22 22 21 20 20 20 20 20 21
24 20 18 17 16 17 17 16 15 15 15 15 17 19 20 20 20 20 20 22 22 21 21 20 22 23 23 21 22 24 24 23 22 22 23 23 21 21 20 20 20 20 19 19 20 19 18 17 16 16 17 18 19 19 19 20 21 22 23 24 26 27 27 28 28 27 27 27 26 26 24 24 23 23 23 24 23 23 23 22 21 21 21 22 22
25 22 20 19 18 18 17 17 17 16 17 17 17 19 21 20 20 21 23 23 23 22 21 22 24 26 25 24 24 26 25 25 25 25 25 24 24 24 24 23 23 23 23 23 23 22 21 19 19 19 19 19 20 21 21 22 23 24 25 25 25 26 28 29 30 30 30 30 30 30 29 28 26 25 25 25 25 24 24 24 25 25 25 25 26
26 25 25 25 24 22 21 20 21 22 22 20 17 18 20 19 19 21 22 22 22 22 21 23 24 26 28 28 27 27 29 29 30 29 29 28 27 26 24 23 23 23 24 24 24 24 24 23 23 24 25 26 26 26 27 28 29 29 29 29 28 28 29 29 30 31 32 33 33 33 34 34 33 32 30 30 29 28 28 28 28 29 30 31 32
30 30 30 30 29 27 25 23 22 22 22 20 18 17 19 20 20 21 21 21 21 22 23 25 27 29 30 30 30 31 33 32 30 30 29 29 28 26 24 24 23 24 25 26 27 28 28 27 27 28 29 30 31 32 32 32 33 33 33 33 33 34 33 33 34 34 35 36 37 37 38 39 39 39 38 37 36 36 36 36 36 36 36 37 38
34 34 33 32 31 29 27 25 22 20 19 20 20 19 21 23 23 23 23 23 21 22 24 29 32 31 29 30 33 36 34 28 24 23 23 23 23 23 24 25 25 26 27 28 30 31 31 31 31 31 32 32 33 34 34 34 35 36 35 36 37 38 38 38 40 40 41 41 42 42 42 43 43 43 43 43 42 42 42 42 43 43 42 42 42
37 36 35 34 33 30 29 28 26 25 24 26 27 26 27 29 29 28 29 28 26 26 27 30 32 31 31 32 32 33 31 25 22 22 22 23 23 24 25 26 27 29 30 31 33 34 35 36 36 37 37 37 37 37 37 37 38 39 39 40 41 42 42 43 44 45 45 45 45 45 45 45 45 45 46 46 47 47 47 47 47 47 47 46 46
40 39 38 37 36 35 34 33 32 31 29 28 30 31 32 33 33 32 33 33 31 30 31 33 34 34 35 36 34 33 33 32 31 29 28 28 28 27 27 28 29 31 32 34 35 37 38 39 40 41 42 43 43 43 43 43 43 44 44 45 45 46 46 47 47 46 46 46 47 47 47 47 46 45 46 47 48 48 49 49 49 49 49 49 48
42 41 40 39 38 38 38 36 35 35 32 28 29 31 33 33 33 34 34 33 32 31 32 35 37 37 38 38 39 40 40 40 39 37 34 32 31 30 30 31 32 33 34 35 37 38 40 41 42 42 43 44 45 45 46 46 46 46 46 46 47 47 48 48 48 47 45 46 48 49 49 49 48 47 48 48 49 51 51 51 51 51 51 51 51
46 45 43 41 40 39 39 38 36 36 36 34 33 34 34 34 33 34 33 32 33 33 34 35 37 39 40 41 41 41 40 39 39 38 36 34 33 33 33 33 34 35 36 37 38 39 40 40 41 42 43 44 45 46 47 47 47 47 47 47 47 48 49 49 49 48 48 48 49 50 50 49 49 50 50 51 51 52 53 54 54 54 54 55 55
49 48 47 45 43 42 41 40 39 39 39 38 37 37 38 38 38 38 36 35 35 35 34 34 36 37 38 39 39 40 39 38 36 35 35 35 36 36 36 36 37 37 37 37 38 38 39 39 40 41 43 44 45 46 47 48 48 48 49 49 49 49 50 50 50 50 50 50 50 52 52 52 53 53 54 54 55 55 56 57 58 58 58 58 58
48 48 47 47 46 45 44 43 42 42 41 40 40 40 41 42 43 42 41 39 38 37 36 36 37 37 37 38 38 40 40 39 37 36 36 37 38 39 40 40 40 39 38 38 38 38 39 40 40 41 43 44 45 47 47 48 49 49 50 50 51 52 52 52 51 51 51 51 52 54 55 56 57 58 58 59 59 59 60 61 62 62 62 61 60
47 46 45 45 45 45 44 43 43 42 42 42 41 41 42 42 43 44 43 42 42 41 40 40 39 39 39 39 39 41 42 41 41 40 40 41 41 41 41 41 41 41 40 39 39 40 40 41 41 42 43 44 45 46 47 48 49 50 51 51 52 52 52 53 53 52 52 51 52 53 55 56 57 58 59 59 60 61 61 62 63 63 63 63 62
45 45 44 44 44 43 43 42 41 42 42 41 40 41 42 43 44 44 44 45 45 45 44 43 43 43 42 42 42 43 44 44 44 44 44 43 42 41 40 41 41 41 41 41 42 42 43 43 44 44 44 45 45 46 47 48 48 49 50 50 51 51 51 51 51 51 51 51 52 52 53 54 56 57 58 59 59 60 61 62 63 63 63 63 63
48 47 46 45 44 43 42 41 40 40 41 40 40 40 41 42 44 45 45 46 47 48 47 46 45 45 44 44 44 45 45 46 46 46 45 43 42 41 41 41 42 43 44 45 46 46 46 46 46 47 47 47 47 47 47 47 48 48 48 48 48 48 48 48 49 49 50 51 51 52 52 53 54 55 57 58 59 60 60 61 62 63 63 63 63
53 52 50 49 47 45 44 43 42 42 42 41 41 41 41 42 44 44 45 48 49 50 49 48 47 46 45 44 44 44 45 45 45 45 44 43 42 42 42 43 43 45 46 47 48 48 48 47 48 48 48 48 48 48 48 48 48 47 47 47 47 47 47 47 48 49 49 50 50 51 52 53 54 55 56 58 59 60 61 61 62 62 63 63 63
55 55 54 54 53 51 49 48 47 46 44 43 43 43 43 44 44 43 44 46 47 46 47 48 47 45 45 44 44 44 44 44 44 45 45 45 45 45 46 46 46 47 48 49 50 50 50 49 49 49 49 49 48 48 48 48 48 47 47 47 47 47 47 47 47 48 48 49 50 51 52 53 54 55 56 57 58 59 60 61 61 62 62 62 62
57 57 57 57 57 56 55 54 54 53 51 49 47 47 46 45 45 45 46 47 47 46 48 49 49 48 47 47 47 47 46 45 44 45 46 47 48 49 49 49 49 49 51 51 52 52 51 50 50 50 50 49 48 48 48 48 47 47 46 46 47 47 47 47 47 47 48 48 49 50 51 52 53 53 54 55 56 56 57 58 58 59 59 60 61
57 57 57 58 59 59 59 59 59 58 57 55 53 52 51 49 47 47 48 48 48 48 49 50 49 49 49 49 49 48 48 48 48 48 48 48 48 49 50 51 52 53 53 53 54 54 53 52 50 50 50 50 49 48 47 47 46 46 45 45 46 46 46 46 46 47 48 48 49 49 50 50 50 50 50 50 51 52 53 54 55 55 56 57 58
58 57 57 56 57 57 58 59 60 60 59 57 55 54 54 54 53 52 51 50 48 48 50 50 50 51 51 51 51 51 51 51 50 49 48 48 49 51 53 54 55 55 55 56 56 55 54 53 51 51 51 51 49 47 46 46 45 45 45 45 45 45 45 46 46 47 47 48 48 49 49 49 49 49 49 49 50 51 51 52 53 53 54 54 55
61 60 59 58 57 57 57 58 58 58 59 58 56 54 54 54 54 53 53 52 50 49 50 50 50 51 51 50 51 51 51 50 49 49 50 52 55 56 57 58 57 57 57 57 56 55 54 53 52 51 51 50 49 47 45 44 44 44 44 44 44 44 45 46 46 47 47 47 48 49 49 50 50 50 51 51 51 52 52 53 53 54 54 54 54
64 63 62 62 61 61 60 60 60 59 58 57 56 55 54 53 52 51 51 51 49 48 48 49 49 49 49 49 50 50 51 50 51 53 55 58 60 60 60 59 59 58 58 57 55 54 53 53 52 51 50 49 48 46 44 43 43 43 43 44 44 45 46 46 47 47 47 48 49 49 50 51 51 52 52 53 53 54 54 54 55 55 56 56 56
66 66 65 64 64 63 63 62 62 62 61 60 59 59 59 58 57 55 54 53 52 52 53 54 54 53 53 53 52 51 51 53 55 59 62 64 63 62 60 59 58 58 56 55 54 53 53 52 52 51 49 48 46 44 42 41 41 42 42 43 44 45 46 46 47 47 48 48 49 49 50 51 51 52 53 53 54 55 55 55 56 56 56 57 56
70 70 69 69 69 68 67 65 64 64 64 64 64 64 63 61 59 58 57 57 57 58 60 61 61 62 63 63 60 59 60 62 65 67 66 64 61 59 57 56 56 56 54 53 53 52 52 51 50 49 47 45 43 41 40 40 40 41 42 43 44 44 45 46 46 47 48 48 48 49 49 50 51 52 53 53 54 54 55 55 55 55 55 55 55
71 71 71 71 71 71 71 70 68 66 65 64 64 64 62 59 57 55 55 56 57 58 59 59 59 61 64 65 64 65 66 67 67 65 62 60 58 57 56 55 54 53 52 51 50 50 49 49 47 46 44 43 41 40 39 39 39 40 41 42 43 43 44 45 45 46 46 46 46 47 48 49 50 51 52 52 53 53 54 54 54 54 54 54 54
68 68 69 69 69 69 70 70 69 68 66 65 64 63 62 61 60 59 58 57 56 55 55 53 53 56 60 61 61 63 64 64 63 61 59 58 57 56 54 53 51 49 48 48 48 47 46 45 44 42 41 40 40 39 39 39 39 40 40 41 42 42 42 42 41 40 41 41 43 45 47 48 50 51 52 52 53 53 54 54 53 53 52 51 51
68 67 67 67 67 68 68 68 68 67 66 65 64 63 63 63 63 62 62 63 62 61 60 58 57 58 60 59 59 60 61 60 59 58 56 54 53 51 50 48 47 45 45 44 44 43 42 41 40 39 39 39 39 38 38 38 39 39 39 40 40 39 37 36 35 35 36 39 41 44 47 49 50 51 52 52 52 52 51 50 49 47 46 45 44
69 68 68 68 68 68 68 68 67 67 66 65 64 63 62 62 62 61 60 61 60 59 58 56 55 57 57 57 56 57 58 58 56 53 50 48 47 46 45 43 42 42 41 41 40 40 39 38 38 38 38 38 37 37 37 37 37 37 37 36 34 32 30 29 30 33 36 39 42 45 48 50 51 51 50 49 48 46 45 43 41 40 38 38 37
65 65 66 66 67 68 68 68 68 67 67 66 65 63 62 61 61 59 59 59 58 56 54 54 54 55 57 57 57 57 55 52 48 45 43 42 42 41 40 40 39 38 38 37 37 36 36 36 36 36 36 36 35 35 35 35 35 33 31 28 26 24 25 27 30 34 38 41 44 46 48 49 48 45 42 39 37 36 34 33 33 33 32 31 31
55 57 59 61 63 64 65 66 67 67 67 66 65 64 62 61 60 59 59 59 58 55 52 51 50 49 50 51 51 49 45 41 38 37 37 38 39 38 37 37 36 35 35 35 34 34 34 34 34 33 33 33 33 32 32 31 29 26 23 21 20 21 24 28 32 35 39 41 44 46 47 44 39 33 30 29 28 27 27 28 28 28 28 27 28
42 44 46 50 53 55 58 61 63 64 65 64 63 62 61 60 59 58 58 59 58 54 50 48 47 46 46 48 48 46 43 41 38 37 36 37 37 37 35 34 34 33 33 32 32 32 32 31 31 31 31 30 30 29 28 25 22 19 17 17 19 22 25 29 33 37 39 41 43 44 40 33 27 24 24 24 24 24 24 24 24 24 25 26 28
35 36 37 40 42 44 47 50 53 56 58 59 60 59 58 57 55 53 53 52 50 48 48 50 50 51 52 53 52 49 47 44 40 37 36 37 36 35 34 33 32 31 31 31 30 30 30 29 29 28 28 27 26 24 22 19 16 14 15 17 19 22 25 30 34 37 39 41 41 38 31 25 22 22 22 21 21 20 20 21 22 24 26 28 29
28 29 31 33 36 38 39 41 44 47 49 51 52 53 54 54 53 51 50 47 44 43 46 49 51 54 55 55 53 50 47 43 39 37 36 36 35 33 33 32 31 30 30 30 29 29 28 27 26 25 24 23 22 19 17 14 12 13 15 17 19 22 26 30 34 36 38 39 36 31 25 22 21 20 20 19 18 18 19 21 23 26 28 28 28
21 22 23 25 28 31 34 36 39 41 42 43 44 45 47 48 49 49 48 46 45 46 49 50 52 54 54 52 50 48 45 42 38 36 35 34 33 33 32 31 30 30 30 29 28 27 26 24 24 23 22 20 18 16 13 11 12 13 15 17 20 23 26 30 34 36 37 34 30 25 22 20 18 17 17 17 17 19 21 22 23 25 26 26 26
17 19 20 21 23 25 27 30 33 35 36 36 36 37 39 40 42 44 45 44 43 44 48 51 54 55 54 51 49 45 42 39 37 35 33 33 33 32 31 30 30 30 29 28 26 24 23 22 21 21 20 18 16 13 12 11 13 14 15 17 21 23 26 30 34 36 35 30 24 21 18 16 15 14 15 16 18 20 22 22 23 23 23 23 24
13 16 18 19 18 19 20 22 25 27 28 29 30 32 33 35 36 38 42 44 44 41 39 42 48 51 50 47 44 41 38 36 34 32 31 32 31 30 29 29 29 28 26 24 22 21 21 20 20 19 18 16 14 12 12 12 13 13 15 18 21 23 26 30 33 35 33 26 20 16 14 12 12 13 14 16 18 19 20 21 22 22 21 21 22
13 13 15 14 13 13 13 14 16 18 19 22 25 27 30 33 34 35 37 41 44 42 38 38 42 44 42 41 38 36 35 34 32 30 30 30 30 29 28 27 26 24 22 21 20 20 20 20 19 18 16 14 13 12 13 12 12 13 16 19 21 22 25 29 32 35 34 26 17 13 11 9 10 12 15 16 16 17 19 20 21 20 20 20 20
17 10 9 9 8 8 9 9 9 11 12 15 19 23 27 29 29 27 27 29 33 36 38 39 40 37 35 34 34 32 32 32 30 29 28 28 27 27 25 23 21 20 19 20 20 20 20 19 18 17 15 14 13 13 12 11 12 14 17 19 20 22 25 28 31 34 36 30 19 12 10 10 11 13 14 14 14 16 18 19 19 18 18 19 19
19 11 2 6 6 7 9 10 8 7 8 10 13 18 22 23 24 24 21 18 18 23 28 31 31 30 29 30 30 30 30 30 28 27 26 26 25 23 20 19 18 19 20 20 20 20 20 18 17 15 15 14 14 13 11 10 12 14 16 18 20 22 24 26 29 32 35 34 25 14 11 11 12 13 12 12 13 15 16 17 17 16 16 18 18
20 15 6 3 5 6 8 8 6 5 7 8 10 13 18 24 29 29 24 19 16 17 19 20 22 24 25 26 27 28 28 27 25 24 24 23 20 18 17 18 20 21 21 21 20 20 18 16 15 15 15 14 14 12 11 10 12 14 16 18 19 21 23 25 27 29 33 35 32 21 12 11 11 12 11 11 12 14 15 16 15 14 15 16 15
21 20 15 11 7 5 4 4 2 1 3 5 8 12 19 28 33 31 26 23 22 20 19 18 19 20 21 23 25 25 24 23 22 21 20 19 17 17 19 21 22 22 21 20 19 18 16 15 15 16 15 14 13 12 11 11 12 14 15 16 18 20 22 24 25 27 29 33 34 29 19 12 11 11 11 11 11 12 15 15 13 13 14 13 11
20 21 22 21 19 16 12 8 6 5 7 10 11 13 19 29 34 33 29 28 27 23 21 19 18 18 18 20 21 20 19 19 18 18 18 18 18 19 21 23 22 22 21 20 18 16 15 15 15 15 14 14 13 12 11 11 12 13 14 15 17 19 21 22 24 25 27 29 32 32 26 17 12 11 10 11 11 12 14 14 13 12 12 11 10
18 20 21 22 22 20 19 16 13 11 11 11 13 14 17 23 28 29 28 27 26 23 21 19 19 19 18 18 17 17 18 18 18 18 20 20 19 21 22 23 22 21 20 18 17 15 15 15 14 14 13 14 14 12 12 12 12 13 14 15 16 17 20 21 22 24 25 27 29 30 30 25 18 13 11 10 11 12 13 14 13 12 11 11 11
16 17 19 20 20 19 19 19 18 17 16 14 13 13 14 16 20 22 22 22 22 21 19 19 20 19 18 17 17 17 18 19 19 20 20 20 20 21 22 22 21 20 18 16 15 14 14 14 14 13 13 14 14 13 12 13 13 13 14 14 15 16 18 20 21 23 24 25 26 28 29 29 26 20 14 11 11 11 12 13 13 13 12 11 11
15 15 16 17 17 17 17 17 17 16 16 16 15 14 14 15 16 18 18 19 20 20 20 20 19 19 18 17 17 17 17 19 20 20 21 21 22 22 22 21 19 17 16 15 14 13 13 13 13 13 13 14 14 13 13 13 14 14 14 14 15 16 17 19 20 21 22 23 25 26 28 28 29 27 22 16 13 12 12 13 13 13 13 13 13
14 14 15 15 15 15 14 14 14 13 13 13 12 12 13 14 15 15 16 17 18 18 19 19 18 18 17 17 16 16 18 20 22 23 23 23 22 21 20 18 16 15 14 13 13 13 13 14 14 14 14 14 14 14 14 14 15 15 15 15 15 16 17 18 19 20 21 22 22 24 26 27 27 28 27 24 19 15 14 14 14 14 15 15 15
11 11 12 12 12 12 12 11 10 10 9 9 9 9 9 10 10 11 11 12 13 14 15 16 16 16 17 17 18 19 21 23 24 24 23 22 20 18 16 15 13 12 12 12 12 13 14 14 14 14 14 14 15 15 15 15 15 16 16 16 16 17 17 18 19 20 20 21 21 22 23 25 26 26 27 27 25 21 17 15 15 16 16 16 16
Wind_Direction
272 275 281 280 278 284 285 279 284 295 290 280 270 261 258 260 264 264 263 263 260 256 254 253 254 255 256 258 257 255 254 252 252 253 255 256 255 256 256 256 257 258 259 259 260 261 265 269 273 275 275 275 276 281 285 286 286 286 285 284 282 280 277 274 271 268 266 264 264 265 268 270 272 272 272 272 273 276 277 278 278 278 278 278 278
270 267 272 274 276 285 278 269 289 309 289 271 263 254 253 260 268 271 271 270 268 263 258 257 259 260 261 262 260 258 256 254 253 253 252 251 249 249 252 257 262 263 262 260 258 261 270 277 281 282 280 279 278 280 283 283 281 280 280 280 282 282 280 278 275 272 270 267 266 266 267 269 270 271 272 272 272 272 274 277 279 281 282 282 283
270 267 270 273 278 286 284 274 280 285 277 272 263 257 256 257 263 268 270 269 266 263 261 261 263 264 264 265 266 268 266 261 257 254 250 248 245 244 250 260 266 266 264 262 263 271 283 289 291 291 290 288 285 283 282 280 278 276 275 274 276 278 279 279 278 276 273 269 267 266 265 265 265 266 267 268 269 270 270 271 273 276 279 281 283
272 270 272 275 276 280 285 279 272 276 282 277 265 263 261 255 255 260 264 266 265 263 263 264 265 266 265 263 265 267 269 267 264 260 255 249 246 246 251 259 264 263 261 261 266 275 285 291 291 289 286 285 285 283 281 279 276 274 272 270 270 272 273 275 276 276 276 273 270 267 266 264 264 264 265 264 265 266 267 268 269 269 271 273 276
274 273 274 274 272 273 277 275 271 273 277 271 264 264 262 258 256 254 256 260 262 262 262 261 261 263 262 260 257 255 258 261 262 261 258 254 251 251 254 258 261 262 262 262 266 272 280 287 289 286 281 277 275 276 278 279 278 276 274 272 271 271 271 271 272 274 276 277 275 274 273 272 270 269 268 267 267 266 266 266 267 269 270 270 270
275 274 273 271 272 274 274 270 267 268 273 273 269 267 264 260 256 254 255 258 258 259 260 261 261 261 261 260 254 250 251 253 255 257 258 257 256 256 258 261 263 264 263 263 265 269 274 278 281 281 279 275 270 269 271 274 277 277 276 276 274 273 272 271 271 271 272 274 275 275 275 276 275 273 270 269 269 269 270 270 269 271 274 275 275
272 274 275 273 274 277 274 269 266 269 277 279 269 262 260 256 252 252 255 258 261 262 263 264 265 263 264 263 256 250 250 251 250 253 255 256 259 261 261 262 265 266 266 266 268 271 274 273 271 271 272 271 269 268 269 272 274 276 277 277 276 275 273 272 271 270 270 271 272 272 273 275 276 275 272 269 267 268 271 274 276 277 279 281 282
269 274 278 278 278 278 278 276 274 276 280 277 265 252 246 246 251 252 252 256 261 263 263 265 266 264 264 265 260 255 255 254 252 252 253 257 261 263 260 261 265 268 269 272 275 278 279 277 273 272 272 273 272 271 270 272 273 273 274 275 274 274 274 273 271 270 269 269 270 271 273 275 276 276 275 272 270 269 269 271 275 278 282 284 286
270 274 277 279 280 279 279 279 278 280 277 269 262 257 249 249 255 255 253 256 259 263 267 267 266 263 260 259 257 254 254 253 251 249 250 254 258 257 256 260 267 272 274 277 279 281 282 280 276 275 275 275 275 274 273 273 273 273 273 273 273 273 273 273 272 271 270 269 270 271 273 274 274 273 273 272 271 271 271 271 272 274 278 281 284
269 272 274 277 278 279 279 277 274 274 272 266 265 264 258 254 254 251 252 255 257 262 265 264 263 261 256 251 246 243 243 243 242 240 242 246 250 252 256 262 268 273 276 278 280 282 282 281 279 276 275 274 274 274 273 273 274 274 275 275 274 274 274 273 272 272 271 271 271 272 272 272 272 272 271 270 269 269 270 271 272 273 274 276 280
268 269 271 272 273 274 275 274 270 267 267 269 270 266 261 259 256 253 256 259 259 258 260 262 264 262 260 257 251 246 245 248 252 252 251 251 253 257 262 266 270 273 276 277 279 280 280 280 278 277 276 276 275 275 274 274 274 275 276 276 276 276 276 275 274 273 272 272 271 271 271 271 271 271 270 269 269 268 269 269 270 271 271 272 275
268 268 268 267 267 268 269 270 269 267 265 268 270 265 260 259 258 257 259 261 261 260 261 264 266 264 263 264 264 262 263 266 269 269 264 260 260 264 269 272 274 275 276 276 277 277 277 276 275 275 275 276 276 277 277 277 277 276 276 276 276 276 276 276 276 275 274 272 271 270 270 269 269 269 269 269 269 268 269 270 271 271 271 271 272
268 266 264 263 263 264 265 265 264 263 262 263 263 260 256 257 259 259 259 261 262 263 262 263 265 266 266 267 269 272 273 274 276 275 272 268 267 270 274 276 276 276 275 275 275 275 275 275 276 276 277 278 279 279 279 279 279 278 278 277 277 277 276 276 276 275 273 273 272 271 270 269 268 268 268 269 269 269 269 270 271 271 271 271 271
267 264 262 259 258 259 260 260 259 258 258 258 258 256 254 256 259 260 260 261 262 264 265 265 264 265 267 269 272 275 276 275 274 274 274 272 271 271 273 274 276 277 277 278 278 279 279 280 280 280 280 281 281 281 281 282 282 282 282 281 281 280 280 279 278 276 275 273 273 271 270 270 269 269 269 269 269 269 270 270 270 270 270 271 271
267 266 263 260 257 255 256 257 256 256 257 258 258 257 255 256 259 261 261 261 260 262 266 267 266 266 267 270 272 274 274 274 272 271 271 271 271 271 272 273 275 278 281 284 285 286 286 285 284 283 281 281 280 281 281 282 283 284 284 284 284 283 282 282 281 280 278 276 274 272 272 271 271 271 271 270 270 270 270 269 269 270 270 270 270
265 265 265 264 261 259 257 257 257 258 259 260 260 258 256 256 258 260 261 261 260 262 265 267 268 268 268 269 270 270 270 270 270 270 270 273 274 275 275 276 277 279 283 287 290 291 291 289 287 285 283 281 280 280 280 281 281 282 282 283 283 284 284 283 283 282 281 279 277 276 274 274 273 273 273 272 272 271 270 270 270 269 269 269 269
264 264 265 264 264 262 261 260 259 259 260 261 261 261 259 257 257 259 261 260 260 264 267 268 268 268 267 267 268 267 267 267 268 269 273 278 280 280 280 279 279 280 283 287 292 294 294 292 289 286 284 282 281 280 280 280 280 281 281 282 282 283 283 284 284 284 283 282 280 279 278 277 276 275 275 274 273 272 271 270 270 270 269 269 268
263 263 263 263 263 262 260 259 258 257 256 256 256 258 259 259 259 259 261 261 263 267 270 271 270 268 266 266 266 265 265 266 267 270 275 280 281 282 283 282 281 281 283 288 292 295 295 294 292 289 286 284 283 282 282 281 281 281 281 281 282 282 283 284 284 285 284 284 283 281 280 279 279 278 277 275 274 272 271 270 269 269 268 268 267
262 261 261 261 261 260 257 255 254 253 253 253 253 254 256 258 259 260 261 262 265 269 271 271 268 266 265 265 265 265 265 267 269 272 277 279 280 281 282 283 283 284 286 289 292 294 295 295 294 292 289 287 286 285 285 284 283 283 282 282 283 283 284 284 285 285 285 285 285 284 283 281 280 279 277 276 275 273 272 271 269 269 268 267 267
259 259 258 258 258 258 255 253 252 253 253 253 254 255 255 257 259 261 262 265 267 269 269 268 266 265 266 268 268 268 269 270 272 274 275 276 277 278 279 281 283 285 287 289 291 293 294 294 294 293 291 290 288 287 287 286 285 284 284 284 284 285 285 286 286 287 287 287 286 285 283 282 280 279 277 276 275 274 273 272 270 269 268 267 266
259 258 258 257 257 257 256 254 254 255 255 254 254 256 257 257 258 259 262 266 268 269 268 268 268 269 270 271 272 272 272 273 273 273 273 274 275 276 277 279 281 285 288 291 293 293 293 294 293 293 291 290 289 287 287 286 286 285 285 286 286 287 287 288 288 288 287 286 285 284 283 282 282 281 279 278 277 276 275 274 273 272 270 269 267
261 259 258 258 257 257 257 256 257 257 258 257 257 256 257 257 257 258 261 263 265 267 268 270 272 272 271 270 270 271 272 273 274 274 274 275 276 277 278 280 284 289 293 295 296 295 294 293 292 292 291 289 288 286 286 285 285 285 286 286 287 287 288 288 288 286 285 284 283 284 284 284 284 284 283 281 280 280 279 278 277 276 275 273 272
264 262 260 259 258 258 258 258 258 259 259 260 259 258 257 255 255 257 259 261 263 265 268 271 273 273 272 272 272 273 274 275 275 275 276 277 277 278 281 285 289 293 296 298 298 297 295 293 291 291 290 289 287 286 285 284 284 285 285 286 286 287 287 287 286 285 284 284 284 284 285 286 287 287 286 285 284 283 282 281 280 279 278 277 276
266 264 262 260 259 258 258 259 259 259 259 260 259 259 258 257 256 256 257 258 261 264 267 270 271 271 272 273 273 274 275 275 275 275 275 276 278 281 285 288 291 294 296 297 297 296 294 293 291 290 289 289 288 286 285 285 285 285 285 286 286 287 287 286 286 285 285 285 285 285 286 287 288 288 287 287 286 284 283 282 281 280 279 278 277
264 264 264 263 261 259 259 259 258 258 259 259 259 259 259 259 259 259 259 261 263 265 266 266 265 264 265 267 269 270 271 270 270 271 274 278 280 283 286 289 291 293 294 295 294 293 292 291 289 289 288 288 287 286 285 284 285 285 286 287 287 287 287 286 286 286 286 286 286 286 287 287 287 287 287 286 286 285 284 283 282 281 280 279 279
261 261 262 262 262 262 261 260 259 258 258 258 258 258 258 258 258 259 260 263 263 263 261 259 257 257 259 260 262 264 266 267 268 272 276 280 282 284 286 288 289 290 291 292 291 290 289 288 287 287 287 286 285 284 284 284 284 284 285 286 286 286 286 287 287 287 287 287 287 287 287 287 287 287 286 286 286 285 284 283 282 281 280 280 280
262 261 260 260 260 261 261 260 260 259 259 259 259 259 260 260 260 258 258 257 256 255 255 256 256 258 260 261 261 263 266 269 271 275 278 281 282 283 285 286 287 288 289 289 288 287 286 286 285 285 285 284 283 283 283 283 283 283 283 284 284 284 285 286 286 287 287 287 287 287 287 286 286 286 286 285 284 284 283 282 282 281 281 281 281
264 263 262 262 261 261 260 259 258 258 259 260 260 261 262 262 262 261 259 257 255 254 255 256 258 260 261 261 262 264 267 269 272 275 278 279 281 282 283 284 285 286 286 286 286 285 285 284 284 284 283 283 282 282 282 282 282 282 283 283 284 284 285 286 287 287 287 287 287 286 286 286 285 285 284 284 284 284 284 284 284 284 283 283 282
264 263 263 262 262 262 261 260 259 258 258 258 258 258 258 257 257 257 258 258 259 259 260 260 261 261 262 262 263 264 266 268 271 274 276 278 280 281 282 282 283 283 283 283 283 283 283 282 282 282 282 281 281 282 283 283 283 284 284 285 286 286 287 287 287 287 287 287 286 285 285 285 284 285 285 286 286 286 286 286 286 285 285 284 283
263 263 263 262 262 262 262 261 260 259 257 257 256 255 254 252 251 250 250 252 254 255 257 258 260 262 264 265 265 265 266 268 271 273 276 277 279 280 280 280 280 281 281 281 281 281 280 280 280 279 280 280 281 283 284 285 285 286 287 288 288 288 288 288 287 286 286 286 286 285 286 286 286 287 288 288 288 289 288 288 287 286 285 284 283
261 261 261 261 261 261 261 260 260 259 258 257 256 255 254 253 252 251 250 250 251 252 254 256 258 261 263 265 264 265 266 269 271 274 275 277 278 278 278 278 278 278 278 278 278 278 278 277 277 277 278 280 282 283 284 285 287 288 288 288 288 287 287 286 286 287 288 289 290 290 289 289 289 290 290 291 291 291 290 289 288 288 287 286 285
259 259 259 259 259 259 259 259 259 258 258 257 256 255 255 255 255 254 254 253 253 253 254 254 254 256 258 261 262 264 267 270 272 274 275 275 276 276 276 275 275 275 274 275 275 275 275 275 275 276 278 280 282 283 284 285 286 287 287 287 286 285 285 288 291 294 295 295 294 293 292 292 292 293 294 293 292 290 289 289 289 289 289 289 289
258 257 256 256 256 257 257 257 257 257 256 256 256 256 255 255 255 255 255 255 254 254 253 252 252 254 257 260 263 266 269 271 272 272 272 273 274 274 274 273 272 272 272 272 272 272 272 272 274 275 277 279 281 283 283 284 284 284 283 282 282 285 291 296 300 301 300 299 297 295 295 295 296 296 295 292 290 289 289 290 290 290 290 291 292
260 258 256 255 255 254 255 255 255 255 254 254 254 254 254 253 253 253 253 253 254 254 253 253 253 254 256 259 262 266 268 270 271 271 272 273 273 273 272 271 271 270 270 270 270 270 270 272 273 275 277 279 281 281 281 280 280 278 276 277 284 292 299 303 306 307 306 304 301 300 299 299 299 297 294 292 291 292 291 290 290 291 292 294 294
264 261 259 257 255 254 254 253 253 253 252 252 252 252 251 250 250 250 250 251 252 251 250 249 248 249 251 255 260 265 268 270 272 273 273 272 272 272 272 271 270 270 269 270 270 271 272 273 275 276 277 278 277 276 275 273 270 268 272 282 291 299 304 309 313 314 313 309 306 304 303 303 300 297 296 295 295 293 292 293 295 296 297 297 297
267 265 262 260 258 256 255 254 253 252 251 250 249 249 247 247 246 246 245 246 247 245 245 246 246 247 250 255 260 264 267 269 270 271 270 270 271 272 271 271 270 270 270 271 271 272 273 274 275 274 273 271 269 266 264 260 259 266 279 290 297 303 309 315 318 319 317 312 309 307 307 305 302 301 300 298 295 294 296 299 301 302 301 301 301
267 265 262 260 258 256 255 254 253 253 252 250 249 247 245 244 242 240 239 238 236 234 235 240 243 246 249 254 258 262 265 267 268 267 267 268 269 268 268 268 269 270 271 272 272 273 273 272 269 266 262 259 256 253 249 249 258 273 285 293 300 308 314 319 322 324 321 316 311 309 308 306 305 303 300 297 297 299 301 303 304 305 304 304 305
266 263 260 257 255 253 251 250 249 249 250 250 248 247 245 243 241 237 235 232 231 231 233 235 240 245 250 254 258 261 263 265 265 264 264 265 265 264 265 266 267 268 269 270 271 270 267 263 258 253 248 245 242 238 238 247 264 278 288 298 307 312 318 324 328 330 327 320 313 309 308 307 304 301 298 299 301 301 301 304 307 308 307 307 309
272 263 257 255 253 252 250 247 244 244 245 246 245 245 243 242 240 236 231 226 225 230 234 236 240 245 250 253 256 259 260 261 261 260 261 262 261 261 262 263 264 265 266 266 265 260 254 248 243 238 235 234 232 231 238 253 268 280 293 304 311 315 323 330 334 336 333 325 314 308 308 305 301 300 299 300 300 298 300 306 310 310 310 312 316
287 265 254 251 251 251 250 246 242 241 241 242 242 242 241 238 235 233 230 225 221 223 229 235 240 243 247 250 252 254 256 256 256 256 256 257 257 258 259 259 259 260 259 256 251 244 238 233 229 228 229 229 229 233 244 258 272 287 300 307 312 320 329 335 338 341 341 332 316 307 310 306 300 301 300 296 295 298 303 310 313 313 314 318 321
320 280 254 246 245 243 242 241 239 237 237 238 239 238 237 235 231 228 228 227 224 223 227 235 240 243 246 248 249 249 250 250 250 250 251 253 254 254 254 253 253 251 247 240 232 226 223 222 223 225 228 229 230 237 248 261 278 294 302 307 315 325 333 338 341 346 348 343 323 306 306 304 299 300 300 297 300 307 312 315 317 318 319 322 325
352 319 255 230 228 228 226 226 229 232 234 236 236 234 232 230 224 217 217 221 221 221 226 235 242 244 245 244 243 242 241 241 242 244 246 247 248 247 246 244 241 235 227 219 215 215 216 219 222 226 228 228 230 238 248 264 284 295 302 309 320 329 334 339 345 350 353 352 340 310 295 299 303 304 305 307 312 318 321 322 322 322 325 328 329
12 5 264 196 199 218 224 223 224 232 239 242 237 230 222 209 196 187 184 188 200 213 225 234 239 239 236 234 232 232 232 233 236 239 239 240 240 238 233 227 219 212 208 207 208 211 215 219 223 226 227 226 230 239 251 268 285 295 303 313 323 330 334 339 347 353 357 358 353 332 299 300 310 312 313 320 325 326 328 328 327 330 336 337 333
32 33 48 156 191 212 217 214 218 239 251 247 235 218 199 182 174 172 172 174 190 213 228 231 228 225 224 223 222 222 225 227 228 229 230 230 226 218 209 204 202 201 202 204 207 211 216 220 224 226 224 224 230 241 254 270 284 295 305 315 323 329 333 338 347 355 359 1 1 353 327 307 313 319 322 327 331 334 335 335 337 345 349 343 338
48 51 59 73 87 104 133 145 146 178 206 200 194 190 183 173 167 166 170 176 189 210 227 227 218 213 212 212 214 216 217 217 217 219 218 211 201 196 197 198 198 199 202 205 209 213 216 220 223 223 223 226 234 243 254 268 281 293 305 314 322 329 332 336 345 354 0 4 5 3 351 328 316 322 329 330 330 335 341 342 346 357 359 351 348
60 60 63 68 72 76 81 87 96 117 132 135 137 150 166 171 170 169 172 175 181 198 216 217 203 196 200 205 206 205 203 203 205 204 197 189 190 197 200 199 199 201 203 206 210 213 216 219 221 222 225 231 238 244 254 266 277 290 302 312 320 327 332 335 342 351 358 3 7 7 4 352 330 320 328 332 329 331 337 342 349 2 6 358 353
69 68 66 65 66 70 74 78 86 101 117 127 129 133 148 163 169 173 176 179 184 196 204 196 184 187 198 201 194 189 190 192 192 186 183 186 197 203 200 197 198 201 203 206 209 211 214 218 221 223 229 236 242 247 255 265 275 286 297 309 318 325 331 335 340 347 354 360 4 7 9 8 357 336 324 324 328 332 335 339 345 358 5 359 351
64 67 69 68 66 67 69 72 77 86 96 107 120 129 138 152 164 171 177 183 188 192 189 181 180 187 193 188 180 180 185 185 182 182 188 198 203 202 198 196 198 199 201 204 207 209 213 219 223 227 233 240 244 249 255 264 273 282 293 304 314 322 328 334 338 343 348 354 359 3 6 10 9 0 344 324 317 324 332 337 341 346 351 350 345
51 55 61 65 66 66 68 71 73 77 82 89 100 110 119 131 145 155 163 169 173 174 174 175 178 180 180 180 181 183 184 184 186 191 199 203 200 196 195 195 196 197 200 203 206 210 216 222 225 230 236 241 246 251 257 263 271 280 290 300 310 318 324 330 336 340 343 348 354 358 0 4 8 9 4 351 328 312 313 323 331 336 337 336 335
49 51 53 57 60 61 63 66 70 74 78 83 90 99 109 120 131 140 148 156 163 167 170 172 173 175 181 189 192 192 192 194 196 198 198 195 191 189 190 192 194 197 202 205 210 217 223 226 229 233 238 243 248 253 258 263 270 278 287 296 306 314 320 325 331 336 338 341 348 354 355 356 360 5 7 5 355 333 312 305 310 318 325 327 327
47 49 52 55 57 58 59 62 68 74 79 85 91 98 108 120 129 138 147 157 163 167 170 174 181 188 195 199 200 199 198 197 194 191 188 185 184 185 187 190 195 201 207 213 221 226 229 231 234 237 241 246 251 254 259 264 269 275 283 292 301 308 315 320 325 329 331 335 342 347 350 351 353 356 1 5 5 359 343 321 303 300 306 314 320
Height
5735 5735 5735 5735 5733 5733 5732 5730 5729 5730 5731 5733 5734 5735 5735 5735 5735 5735 5736 5736 5736 5736 5736 5736 5736 5737 5737 5738 5738 5739 5739 5739 5740 5740 5740 5741 5741 5742 5742 5742 5743 5743 5744 5744 5744 5745 5745 5745 5745 5746 5745 5746 5746 5746 5747 5747 5747 5747 5747 5747 5747 5747 5746 5746 5745 5745 5745 5745 5745 5745 5745 5744 5744 5744 5744 5744 5744 5744 5744 5744 5744 5744 5744 5744 5744
5732 5732 5733 5732 5731 5730 5730 5729 5729 5729 5730 5730 5731 5732 5733 5734 5733 5733 5733 5733 5733 5734 5734 5734 5734 5734 5735 5735 5736 5736 5737 5737 5737 5738 5738 5738 5739 5739 5740 5740 5741 5741 5741 5742 5742 5742 5743 5743 5743 5743 5744 5744 5744 5744 5744 5745 5745 5745 5746 5746 5746 5746 5745 5745 5744 5744 5744 5744 5743 5743 5743 5743 5742 5742 5741 5741 5741 5741 5741 5741 5741 5741 5741 5741 5741
5730 5729 5729 5729 5728 5727 5727 5728 5728 5728 5727 5727 5728 5729 5730 5731 5731 5731 5730 5730 5731 5731 5731 5732 5732 5732 5733 5733 5734 5735 5735 5735 5735 5735 5735 5736 5736 5737 5738 5738 5739 5739 5739 5739 5740 5740 5740 5740 5741 5741 5741 5742 5742 5742 5742 5742 5743 5743 5743 5744 5744 5744 5744 5743 5743 5743 5743 5743 5742 5742 5742 5741 5741 5740 5740 5739 5739 5739 5739 5739 5738 5738 5738 5738 5738
5726 5726 5725 5725 5724 5724 5724 5725 5725 5725 5725 5725 5726 5726 5727 5727 5728 5728 5728 5728 5728 5729 5729 5730 5730 5730 5731 5731 5732 5733 5733 5733 5733 5733 5733 5733 5734 5734 5735 5735 5736 5736 5737 5737 5737 5738 5738 5738 5738 5738 5739 5739 5739 5739 5740 5740 5740 5740 5741 5741 5741 5741 5741 5741 5741 5741 5741 5741 5741 5740 5740 5740 5739 5738 5738 5737 5737 5736 5736 5736 5736 5735 5735 5735 5735
5722 5722 5721 5721 5721 5721 5721 5722 5722 5722 5722 5723 5724 5724 5724 5725 5725 5725 5725 5725 5725 5725 5726 5727 5727 5727 5728 5729 5729 5729 5730 5731 5731 5731 5731 5731 5731 5731 5731 5732 5732 5733 5734 5734 5735 5735 5735 5735 5735 5735 5735 5736 5736 5736 5737 5737 5737 5737 5738 5738 5738 5739 5739 5739 5739 5738 5738 5738 5738 5738 5738 5737 5737 5736 5735 5734 5734 5733 5733 5733 5733 5732 5732 5732 5732
5718 5718 5718 5718 5718 5718 5719 5719 5720 5720 5720 5720 5721 5721 5721 5722 5723 5723 5723 5722 5722 5722 5722 5723 5724 5724 5725 5726 5726 5726 5726 5727 5727 5728 5728 5728 5728 5728 5728 5729 5729 5730 5730 5731 5732 5732 5732 5732 5732 5732 5732 5733 5733 5734 5734 5734 5734 5734 5734 5735 5735 5735 5735 5736 5736 5736 5735 5735 5734 5734 5734 5734 5734 5734 5733 5732 5731 5730 5730 5729 5729 5729 5728 5728 5728
5715 5715 5716 5716 5716 5716 5716 5716 5717 5717 5717 5717 5718 5718 5718 5719 5720 5720 5720 5719 5719 5719 5720 5720 5721 5721 5722 5722 5722 5722 5723 5724 5724 5724 5725 5725 5726 5726 5726 5726 5726 5726 5727 5728 5728 5729 5729 5729 5729 5729 5730 5730 5731 5731 5731 5731 5731 5731 5731 5732 5732 5732 5732 5732 5732 5732 5732 5732 5731 5731 5731 5731 5731 5730 5730 5729 5729 5728 5727 5725 5725 5724 5724 5724 5724
5712 5712 5712 5713 5713 5713 5713 5714 5714 5714 5714 5714 5715 5715 5715 5716 5716 5716 5716 5717 5717 5717 5717 5718 5718 5718 5719 5719 5719 5719 5720 5720 5720 5721 5721 5722 5723 5723 5723 5723 5723 5723 5723 5724 5725 5725 5726 5726 5726 5726 5726 5727 5727 5728 5728 5728 5728 5728 5728 5728 5728 5728 5728 5728 5728 5728 5728 5728 5728 5728 5727 5727 5727 5727 5726 5726 5725 5725 5724 5723 5722 5721 5720 5719 5719
5708 5708 5709 5709 5709 5710 5710 5711 5711 5711 5711 5711 5711 5711 5712 5712 5713 5713 5713 5714 5714 5715 5715 5715 5715 5716 5717 5717 5718 5718 5716 5715 5716 5717 5717 5718 5718 5719 5719 5719 5719 5720 5720 5720 5720 5721 5721 5722 5722 5722 5723 5723 5723 5724 5724 5724 5723 5723 5724 5724 5724 5724 5724 5724 5724 5724 5724 5724 5724 5724 5723 5723 5722 5722 5722 5721 5721 5720 5720 5719 5718 5717 5716 5715 5714
5704 5704 5705 5705 5705 5706 5707 5707 5708 5708 5708 5708 5709 5709 5709 5709 5710 5710 5710 5710 5711 5712 5712 5711 5711 5712 5712 5713 5714 5713 5711 5711 5712 5712 5713 5713 5714 5714 5714 5715 5715 5716 5716 5716 5716 5716 5717 5717 5718 5718 5718 5719 5719 5719 5719 5719 5719 5719 5719 5719 5719 5719 5719 5719 5719 5718 5719 5719 5719 5718 5718 5717 5716 5716 5716 5716 5715 5714 5714 5713 5713 5712 5712 5711 5710
5699 5700 5700 5700 5700 5701 5702 5703 5704 5704 5704 5705 5705 5706 5706 5705 5705 5706 5706 5707 5708 5708 5708 5707 5707 5707 5707 5707 5707 5707 5707 5708 5709 5709 5709 5709 5710 5710 5711 5711 5712 5712 5712 5713 5713 5713 5713 5713 5714 5714 5714 5714 5714 5714 5714 5714 5714 5714 5714 5713 5713 5713 5714 5713 5713 5712 5712 5713 5712 5711 5711 5710 5710 5709 5709 5709 5709 5708 5707 5707 5707 5706 5706 5706 5705
5694 5695 5695 5695 5695 5696 5697 5698 5699 5700 5700 5700 5701 5701 5700 5699 5700 5701 5701 5702 5703 5703 5703 5703 5702 5702 5702 5702 5702 5702 5702 5703 5704 5706 5706 5706 5706 5706 5707 5707 5708 5708 5709 5709 5709 5709 5709 5709 5709 5709 5709 5709 5709 5709 5708 5708 5708 5708 5708 5707 5708 5707 5707 5707 5706 5706 5706 5706 5705 5704 5703 5703 5703 5702 5702 5702 5701 5701 5700 5700 5700 5700 5699 5699 5699
5687 5688 5689 5689 5690 5690 5691 5692 5694 5694 5695 5696 5697 5697 5696 5695 5696 5696 5696 5697 5697 5698 5698 5698 5698 5697 5697 5697 5697 5697 5698 5698 5699 5700 5701 5702 5702 5702 5703 5703 5704 5704 5705 5705 5705 5705 5705 5705 5704 5704 5703 5703 5703 5702 5702 5702 5702 5701 5701 5701 5701 5700 5700 5700 5700 5700 5700 5699 5698 5697 5696 5696 5695 5695 5695 5694 5694 5693 5693 5692 5692 5692 5692 5691 5691
5680 5681 5682 5683 5683 5684 5685 5686 5688 5689 5689 5691 5692 5691 5691 5692 5692 5691 5691 5692 5693 5693 5693 5693 5693 5693 5692 5692 5692 5692 5692 5693 5694 5694 5695 5696 5697 5698 5699 5699 5699 5700 5700 5700 5700 5700 5700 5699 5699 5698 5697 5697 5696 5696 5695 5695 5694 5694 5694 5693 5693 5692 5692 5692 5692 5693 5692 5692 5690 5689 5689 5688 5688 5687 5687 5687 5686 5686 5685 5685 5684 5684 5684 5683 5683
5672 5673 5674 5675 5676 5677 5678 5680 5681 5682 5683 5684 5685 5685 5686 5687 5687 5686 5686 5687 5687 5688 5688 5688 5688 5688 5688 5687 5687 5687 5687 5688 5689 5690 5691 5691 5692 5693 5694 5694 5694 5694 5694 5694 5694 5694 5694 5693 5693 5692 5691 5691 5691 5690 5689 5688 5688 5687 5686 5686 5685 5685 5684 5684 5684 5684 5684 5684 5683 5682 5682 5681 5680 5679 5679 5679 5678 5678 5677 5676 5675 5675 5675 5675 5674
5664 5665 5666 5667 5668 5670 5671 5673 5674 5675 5676 5677 5678 5679 5679 5680 5680 5681 5681 5681 5682 5682 5683 5683 5683 5683 5683 5683 5683 5683 5683 5683 5684 5685 5686 5686 5687 5687 5687 5688 5688 5688 5688 5688 5688 5687 5687 5687 5686 5686 5686 5685 5685 5684 5683 5682 5681 5681 5680 5679 5679 5678 5677 5677 5676 5676 5676 5676 5675 5674 5673 5673 5671 5670 5670 5669 5669 5668 5667 5667 5666 5666 5666 5666 5666
5657 5658 5659 5659 5660 5662 5664 5666 5667 5668 5669 5669 5670 5671 5672 5672 5673 5674 5675 5675 5676 5676 5676 5677 5677 5678 5678 5678 5678 5678 5678 5679 5679 5680 5680 5680 5681 5681 5681 5681 5681 5681 5681 5681 5681 5681 5681 5681 5680 5680 5679 5679 5678 5678 5677 5676 5675 5674 5673 5673 5672 5671 5670 5669 5669 5668 5668 5667 5666 5665 5664 5663 5662 5661 5660 5660 5659 5658 5657 5657 5656 5655 5656 5656 5657
5652 5652 5652 5652 5653 5655 5656 5657 5659 5660 5661 5662 5663 5663 5664 5665 5666 5667 5668 5669 5669 5669 5670 5670 5670 5671 5672 5672 5672 5673 5673 5673 5673 5674 5674 5674 5674 5674 5674 5674 5675 5675 5675 5675 5675 5675 5675 5674 5674 5673 5673 5672 5672 5671 5670 5670 5668 5667 5666 5665 5665 5664 5663 5662 5661 5660 5660 5659 5658 5657 5656 5655 5653 5652 5651 5650 5648 5648 5647 5646 5645 5645 5645 5645 5646
5646 5646 5646 5646 5647 5648 5648 5649 5651 5652 5654 5655 5656 5657 5658 5658 5659 5660 5661 5662 5662 5663 5663 5663 5663 5664 5665 5665 5666 5666 5666 5666 5667 5667 5667 5667 5667 5667 5668 5668 5668 5669 5669 5669 5669 5669 5669 5668 5668 5667 5666 5665 5665 5664 5663 5663 5662 5661 5659 5658 5658 5657 5656 5655 5654 5653 5652 5651 5650 5649 5648 5646 5645 5643 5642 5640 5638 5637 5636 5636 5635 5634 5635 5635 5635
5638 5638 5639 5640 5641 5641 5642 5643 5644 5645 5646 5648 5649 5650 5651 5652 5653 5654 5655 5655 5655 5656 5656 5656 5656 5657 5657 5657 5657 5658 5659 5659 5660 5660 5660 5661 5661 5661 5662 5662 5662 5663 5663 5663 5663 5663 5663 5662 5661 5660 5659 5658 5657 5657 5656 5655 5655 5654 5653 5652 5651 5650 5650 5649 5648 5646 5645 5644 5643 5641 5639 5638 5636 5634 5633 5631 5629 5628 5626 5625 5625 5624 5624 5624 5624
5630 5631 5632 5633 5634 5635 5636 5636 5637 5638 5639 5640 5641 5642 5644 5645 5646 5648 5648 5647 5647 5647 5647 5648 5648 5649 5649 5649 5650 5650 5652 5652 5653 5654 5654 5655 5655 5655 5656 5656 5657 5657 5657 5657 5657 5657 5657 5656 5655 5654 5653 5652 5651 5650 5649 5648 5647 5646 5646 5645 5644 5643 5642 5642 5641 5639 5638 5636 5634 5633 5631 5629 5627 5625 5624 5622 5620 5618 5617 5616 5615 5614 5613 5613 5614
5622 5623 5624 5625 5626 5627 5628 5629 5629 5631 5632 5633 5634 5635 5636 5638 5639 5640 5640 5640 5640 5640 5640 5640 5641 5641 5641 5642 5643 5644 5645 5646 5647 5647 5648 5648 5649 5649 5649 5650 5650 5650 5650 5650 5650 5650 5650 5649 5649 5648 5647 5645 5644 5643 5642 5642 5641 5640 5639 5638 5638 5637 5636 5635 5634 5632 5630 5629 5627 5625 5623 5621 5620 5618 5616 5614 5612 5610 5609 5607 5606 5605 5604 5603 5603
5613 5615 5616 5617 5618 5619 5620 5621 5621 5622 5624 5626 5628 5628 5629 5630 5631 5632 5633 5633 5634 5634 5634 5634 5634 5634 5634 5634 5635 5637 5638 5638 5639 5640 5641 5641 5642 5642 5642 5642 5642 5642 5642 5642 5642 5642 5642 5642 5642 5641 5640 5639 5638 5637 5636 5635 5635 5634 5633 5632 5631 5630 5629 5628 5626 5625 5623 5621 5620 5618 5616 5614 5612 5611 5608 5607 5605 5603 5601 5599 5598 5596 5596 5595 5594
5604 5606 5607 5609 5610 5611 5612 5612 5613 5615 5616 5618 5620 5620 5621 5622 5624 5625 5626 5627 5627 5627 5628 5628 5627 5627 5627 5628 5629 5630 5630 5631 5632 5633 5633 5634 5634 5635 5635 5635 5635 5635 5635 5635 5635 5635 5635 5635 5634 5634 5633 5632 5631 5630 5630 5629 5628 5627 5627 5626 5625 5624 5622 5621 5619 5618 5616 5615 5613 5611 5609 5607 5605 5604 5602 5600 5598 5596 5594 5592 5590 5589 5587 5587 5586
5596 5596 5597 5599 5601 5602 5603 5604 5605 5607 5608 5609 5611 5612 5613 5615 5616 5618 5619 5620 5620 5621 5621 5621 5621 5621 5621 5621 5622 5623 5623 5624 5624 5625 5626 5627 5627 5628 5628 5628 5628 5628 5629 5629 5629 5629 5628 5628 5627 5626 5626 5625 5624 5624 5623 5622 5622 5621 5620 5619 5618 5617 5615 5614 5613 5611 5610 5608 5606 5605 5602 5600 5598 5596 5594 5592 5590 5588 5586 5584 5583 5581 5579 5579 5578
5587 5588 5589 5590 5591 5592 5594 5595 5597 5598 5599 5601 5603 5605 5606 5607 5609 5611 5613 5614 5615 5615 5614 5614 5614 5614 5614 5615 5615 5616 5617 5617 5618 5618 5619 5620 5621 5622 5623 5622 5622 5622 5622 5622 5622 5622 5621 5620 5620 5619 5619 5618 5617 5617 5617 5616 5615 5615 5614 5613 5612 5610 5609 5608 5606 5605 5603 5602 5600 5598 5595 5593 5591 5589 5587 5585 5583 5580 5578 5577 5575 5573 5571 5571 5570
5576 5578 5579 5580 5581 5583 5584 5586 5587 5589 5590 5593 5595 5596 5597 5599 5601 5604 5607 5608 5609 5608 5607 5606 5607 5608 5607 5607 5608 5610 5610 5611 5611 5612 5613 5614 5616 5616 5616 5616 5615 5615 5615 5615 5615 5614 5614 5613 5613 5612 5612 5611 5611 5611 5610 5610 5609 5608 5607 5606 5605 5604 5603 5602 5600 5599 5597 5595 5593 5591 5588 5586 5584 5582 5580 5577 5575 5572 5570 5569 5568 5566 5564 5563 5562
5565 5567 5568 5569 5570 5572 5573 5576 5578 5580 5582 5584 5585 5586 5588 5591 5593 5595 5597 5599 5600 5600 5599 5600 5600 5600 5600 5600 5602 5603 5603 5604 5605 5606 5608 5609 5609 5609 5609 5609 5608 5608 5608 5608 5608 5607 5607 5606 5605 5605 5605 5605 5604 5604 5604 5603 5603 5602 5601 5600 5599 5598 5597 5596 5594 5592 5590 5588 5586 5584 5581 5579 5577 5574 5572 5570 5568 5565 5563 5561 5560 5558 5556 5555 5554
5552 5555 5556 5557 5558 5560 5561 5563 5567 5570 5572 5574 5575 5577 5580 5583 5585 5586 5588 5589 5590 5591 5591 5592 5593 5591 5591 5593 5595 5596 5596 5597 5599 5600 5601 5602 5602 5602 5602 5602 5602 5602 5601 5601 5601 5600 5600 5599 5599 5599 5598 5598 5598 5598 5597 5597 5596 5596 5595 5594 5593 5592 5591 5589 5588 5585 5583 5581 5579 5577 5574 5572 5570 5567 5565 5563 5560 5558 5555 5553 5552 5550 5548 5547 5545
5541 5543 5544 5545 5547 5548 5549 5551 5554 5557 5560 5563 5565 5567 5570 5573 5575 5578 5579 5580 5581 5582 5583 5585 5585 5584 5584 5586 5587 5588 5589 5590 5592 5593 5594 5594 5594 5595 5595 5595 5595 5595 5595 5594 5594 5594 5593 5593 5593 5593 5592 5592 5592 5592 5591 5591 5591 5590 5589 5589 5588 5586 5585 5583 5581 5579 5577 5575 5572 5570 5567 5565 5563 5560 5558 5556 5554 5551 5548 5545 5543 5542 5540 5538 5536
5530 5532 5533 5534 5535 5536 5537 5539 5542 5545 5548 5551 5553 5556 5559 5561 5564 5568 5570 5571 5573 5574 5575 5578 5579 5578 5578 5578 5579 5580 5582 5583 5585 5586 5587 5587 5587 5588 5588 5588 5588 5588 5588 5588 5588 5588 5588 5587 5587 5587 5587 5587 5587 5586 5586 5586 5585 5584 5584 5583 5582 5580 5579 5577 5576 5574 5571 5569 5566 5563 5561 5558 5556 5554 5551 5549 5546 5543 5540 5537 5536 5534 5532 5530 5529
5518 5521 5522 5522 5523 5524 5526 5528 5530 5533 5536 5539 5542 5545 5549 5551 5553 5557 5560 5562 5564 5566 5568 5569 5570 5571 5571 5571 5571 5573 5575 5576 5578 5579 5580 5580 5580 5581 5581 5581 5582 5582 5582 5582 5582 5583 5582 5582 5582 5582 5582 5582 5582 5582 5581 5581 5580 5580 5579 5578 5577 5576 5574 5573 5571 5569 5566 5563 5560 5557 5554 5552 5549 5547 5544 5541 5539 5536 5533 5531 5529 5528 5526 5524 5523
5507 5509 5510 5511 5512 5513 5514 5516 5519 5521 5524 5527 5531 5534 5538 5541 5544 5548 5550 5551 5553 5557 5559 5560 5562 5563 5563 5564 5565 5567 5568 5570 5571 5572 5573 5573 5574 5574 5574 5575 5575 5576 5577 5577 5577 5578 5577 5577 5577 5577 5577 5577 5577 5577 5576 5576 5576 5575 5574 5573 5572 5571 5570 5569 5567 5564 5561 5558 5554 5551 5548 5545 5543 5540 5537 5534 5532 5530 5528 5526 5525 5523 5522 5520 5518
5495 5497 5499 5499 5500 5502 5503 5505 5507 5510 5513 5516 5519 5524 5528 5531 5534 5537 5539 5540 5544 5549 5550 5552 5554 5555 5555 5556 5558 5561 5563 5564 5565 5566 5567 5567 5568 5568 5569 5569 5570 5571 5571 5572 5572 5572 5572 5572 5573 5573 5573 5573 5573 5572 5572 5572 5571 5571 5570 5570 5569 5568 5567 5565 5562 5559 5556 5552 5548 5545 5541 5539 5536 5534 5531 5529 5527 5526 5524 5522 5521 5519 5518 5517 5515
5486 5487 5488 5489 5490 5491 5493 5494 5496 5498 5501 5505 5508 5512 5517 5520 5523 5528 5530 5531 5537 5542 5543 5544 5546 5547 5548 5549 5552 5554 5557 5558 5559 5560 5561 5562 5562 5563 5563 5564 5565 5566 5567 5567 5567 5567 5567 5568 5568 5568 5568 5568 5568 5568 5568 5568 5568 5568 5567 5567 5566 5565 5564 5561 5558 5554 5550 5546 5542 5538 5535 5533 5531 5529 5527 5525 5524 5522 5521 5519 5518 5517 5515 5514 5512
5478 5479 5480 5480 5481 5483 5484 5485 5486 5488 5490 5494 5497 5501 5505 5509 5513 5518 5521 5525 5530 5535 5535 5536 5539 5540 5541 5543 5546 5548 5550 5552 5554 5555 5556 5557 5557 5558 5559 5559 5560 5561 5562 5562 5562 5563 5563 5563 5564 5564 5564 5564 5564 5564 5564 5565 5565 5565 5565 5565 5564 5562 5560 5558 5554 5550 5546 5541 5537 5533 5530 5528 5527 5525 5524 5522 5521 5519 5518 5517 5516 5514 5513 5511 5509
5472 5472 5472 5473 5473 5474 5475 5477 5478 5479 5481 5484 5488 5492 5495 5499 5504 5508 5513 5518 5523 5525 5526 5529 5531 5533 5535 5537 5540 5542 5545 5547 5548 5550 5551 5552 5553 5553 5554 5555 5556 5556 5557 5557 5558 5558 5559 5559 5559 5559 5559 5560 5560 5561 5562 5562 5562 5563 5562 5562 5561 5559 5557 5554 5551 5547 5542 5536 5532 5529 5527 5525 5524 5522 5521 5519 5518 5517 5516 5515 5513 5511 5509 5508 5506
5467 5466 5466 5466 5466 5467 5468 5469 5470 5472 5474 5477 5480 5484 5487 5491 5495 5500 5505 5511 5515 5517 5519 5522 5524 5526 5528 5531 5534 5537 5539 5541 5543 5544 5545 5546 5548 5548 5549 5550 5551 5552 5552 5553 5553 5554 5554 5555 5555 5556 5556 5557 5558 5558 5559 5560 5560 5560 5560 5559 5558 5557 5554 5551 5547 5542 5537 5532 5528 5526 5524 5522 5521 5520 5519 5517 5516 5515 5514 5513 5511 5509 5507 5505 5503
5463 5462 5461 5461 5461 5461 5462 5463 5464 5466 5468 5470 5473 5477 5480 5484 5488 5493 5498 5503 5507 5510 5513 5516 5518 5520 5522 5525 5528 5531 5534 5535 5537 5539 5540 5541 5543 5544 5545 5546 5547 5547 5548 5549 5549 5550 5550 5551 5552 5552 5553 5554 5555 5556 5557 5558 5558 5558 5557 5557 5555 5554 5551 5548 5544 5539 5534 5529 5525 5523 5521 5520 5519 5518 5517 5516 5515 5513 5512 5510 5509 5507 5505 5502 5500
5458 5457 5456 5456 5457 5457 5458 5458 5459 5461 5463 5466 5468 5471 5474 5477 5481 5485 5490 5495 5499 5503 5507 5510 5511 5513 5516 5519 5523 5526 5528 5529 5531 5533 5535 5537 5538 5539 5541 5541 5542 5543 5544 5545 5545 5546 5547 5548 5549 5550 5551 5552 5553 5554 5555 5556 5556 5556 5555 5554 5553 5551 5549 5545 5541 5536 5531 5526 5523 5521 5520 5518 5517 5516 5515 5514 5513 5512 5510 5508 5506 5504 5502 5500 5498
5455 5453 5452 5453 5454 5455 5456 5456 5457 5458 5460 5461 5463 5465 5468 5471 5474 5479 5483 5488 5492 5498 5503 5504 5505 5507 5511 5514 5517 5520 5522 5524 5526 5529 5531 5532 5534 5535 5536 5537 5538 5539 5540 5541 5542 5543 5544 5546 5547 5548 5549 5550 5551 5552 5553 5553 5553 5553 5553 5552 5551 5548 5546 5543 5539 5534 5529 5524 5521 5520 5518 5517 5516 5515 5514 5513 5511 5510 5508 5506 5504 5502 5500 5498 5496
5453 5450 5449 5450 5452 5453 5454 5455 5456 5457 5457 5458 5459 5461 5462 5465 5469 5474 5479 5483 5489 5495 5499 5500 5501 5504 5507 5509 5512 5515 5517 5519 5521 5524 5526 5528 5529 5531 5532 5533 5534 5536 5537 5538 5540 5541 5542 5544 5545 5546 5547 5548 5549 5550 5551 5551 5551 5551 5551 5550 5548 5546 5543 5541 5537 5532 5527 5523 5520 5518 5517 5516 5515 5514 5512 5511 5510 5508 5506 5504 5502 5500 5498 5497 5495
5453 5450 5449 5450 5451 5452 5453 5454 5455 5456 5456 5456 5457 5457 5459 5461 5466 5470 5475 5480 5486 5492 5495 5496 5498 5500 5502 5504 5507 5510 5512 5515 5517 5520 5522 5524 5525 5527 5529 5530 5532 5533 5535 5536 5538 5539 5540 5542 5543 5544 5545 5546 5547 5548 5549 5549 5549 5549 5548 5547 5546 5544 5542 5539 5536 5532 5527 5522 5518 5516 5515 5514 5513 5512 5511 5510 5508 5507 5505 5503 5501 5499 5497 5495 5494
5455 5452 5451 5451 5451 5452 5453 5454 5454 5455 5455 5455 5455 5456 5457 5460 5464 5469 5473 5478 5485 5490 5492 5493 5495 5496 5498 5501 5503 5505 5508 5511 5514 5516 5518 5520 5522 5524 5526 5528 5529 5531 5533 5534 5536 5537 5539 5540 5541 5542 5543 5544 5545 5546 5546 5547 5547 5547 5546 5545 5543 5542 5540 5538 5535 5531 5527 5522 5518 5515 5514 5513 5512 5511 5510 5509 5507 5506 5504 5502 5500 5498 5496 5495 5494
5459 5456 5454 5453 5453 5453 5453 5454 5454 5454 5454 5454 5455 5455 5457 5460 5464 5469 5473 5477 5482 5487 5489 5490 5492 5494 5496 5497 5500 5502 5505 5508 5511 5513 5516 5518 5520 5522 5524 5526 5528 5529 5531 5532 5534 5535 5537 5538 5539 5540 5541 5542 5543 5544 5544 5544 5545 5545 5544 5543 5541 5540 5538 5536 5534 5531 5527 5523 5519 5515 5513 5512 5511 5510 5509 5508 5507 5505 5504 5502 5500 5498 5496 5495 5493
5462 5460 5459 5457 5456 5455 5455 5455 5455 5455 5456 5456 5456 5457 5459 5462 5465 5468 5472 5475 5480 5484 5486 5488 5490 5493 5495 5496 5498 5501 5504 5507 5509 5511 5514 5516 5519 5521 5522 5524 5526 5528 5529 5531 5532 5534 5535 5536 5537 5538 5539 5540 5541 5542 5542 5542 5543 5543 5542 5541 5540 5538 5537 5535 5532 5530 5527 5523 5520 5517 5514 5511 5510 5509 5508 5507 5506 5505 5503 5502 5499 5497 5496 5494 5493
5465 5463 5462 5461 5460 5459 5458 5458 5458 5458 5458 5459 5460 5461 5463 5465 5468 5470 5473 5476 5480 5482 5485 5488 5490 5492 5494 5496 5498 5501 5504 5506 5508 5510 5513 5515 5517 5519 5521 5523 5524 5526 5528 5529 5531 5532 5533 5534 5535 5536 5537 5538 5539 5539 5540 5540 5540 5540 5540 5539 5538 5536 5535 5533 5531 5529 5526 5523 5520 5518 5515 5512 5510 5508 5507 5506 5505 5504 5503 5501 5499 5497 5495 5494 5493
5468 5466 5465 5464 5464 5463 5462 5462 5461 5461 5462 5462 5463 5465 5466 5468 5471 5473 5476 5478 5480 5483 5485 5487 5489 5492 5494 5496 5498 5501 5503 5505 5507 5510 5512 5514 5516 5518 5519 5521 5523 5525 5526 5528 5529 5530 5531 5532 5533 5534 5535 5536 5537 5537 5537 5538 5538 5538 5538 5537 5536 5535 5533 5532 5530 5527 5525 5523 5520 5518 5515 5513 5510 5508 5507 5505 5504 5503 5502 5501 5499 5497 5495 5494 5492
5471 5469 5468 5467 5466 5466 5466 5465 5465 5465 5466 5466 5467 5468 5469 5471 5473 5475 5477 5479 5481 5483 5485 5488 5490 5492 5494 5496 5498 5501 5503 5505 5507 5509 5511 5513 5515 5516 5518 5520 5522 5524 5525 5526 5527 5528 5529 5530 5531 5532 5533 5534 5534 5535 5535 5535 5535 5535 5535 5535 5534 5533 5532 5530 5528 5527 5525 5522 5520 5517 5515 5513 5511 5509 5507 5505 5503 5502 5501 5500 5498 5497 5495 5494 5492
5473 5472 5471 5470 5470 5469 5469 5469 5469 5469 5469 5470 5471 5472 5473 5474 5476 5477 5479 5481 5482 5484 5486 5488 5490 5493 5495 5497 5498 5500 5502 5504 5506 5508 5510 5511 5513 5515 5517 5519 5521 5522 5523 5524 5526 5527 5528 5528 5529 5530 5530 5531 5532 5532 5533 5533 5533 5533 5533 5532 5531 5531 5530 5528 5527 5526 5524 5522 5520 5517 5515 5513 5511 5509 5507 5505 5503 5501 5500 5499 5497 5496 5495 5493 5492
5476 5475 5474 5474 5473 5472 5472 5472 5472 5472 5472 5473 5474 5475 5476 5477 5478 5479 5481 5482 5484 5486 5488 5489 5491 5493 5495 5496 5498 5500 5501 5503 5505 5507 5509 5511 5513 5515 5517 5518 5520 5521 5522 5523 5524 5525 5526 5526 5527 5527 5528 5529 5529 5530 5530 5530 5530 5530 5530 5530 5529 5528 5528 5526 5525 5524 5523 5521 5519 5517 5515 5513 5511 5509 5507 5505 5503 5501 5499 5497 5496 5495 5494 5492 5491